Regional Weather Roundup
Issued by NWS

Home | Current Version | Previous Version | Text Only | Print | Product List | Glossary On
Versions: 1 2 3 4 5 6 7 8 9 10 11 12 13 14 15 16 17 18 19 20 21 22 23 24 25 26 27
000
ASUS45 KTFX 261110
RWRMT
MONTANA REGIONAL WEATHER ROUNDUP
NATIONAL WEATHER SERVICE GREAT FALLS MT
500 AM MDT FRI MAY 26 2017

NOTE: "FAIR" INDICATES FEW OR NO CLOUDS BELOW 12000 FEET WITH NO
SIGNIFICANT WEATHER AND/OR OBSTRUCTIONS TO VISIBILITY.

MTZ001>007-043-261200-
WEST OF THE DIVIDE

CITY           SKY/WX    TMP DP  RH WIND       PRES   REMARKS
KALISPELL      PTCLDY    43  39  86 N6        29.92S
MISSOULA       MOCLDY    44  38  79 CALM      29.93R
BUTTE          CLEAR     32  27  81 SE5       29.95R
MULLAN PASS    CLEAR     39  32  76 VRB6      29.94R
ANACONDA         N/A     36  28  75 CALM      29.95R
DEER LODGE       N/A     37  32  81 W3        29.96S
EUREKA           N/A     36  34  93 CALM      29.95S
HAMILTON         N/A     41  34  75 CALM      29.91R
$$

MTZ008-052>055-261200-
SOUTHWEST MONTANA

CITY           SKY/WX    TMP DP  RH WIND       PRES   REMARKS
BOZEMAN        PTCLDY    31  29  92 SE6       29.94S WCI  25
DILLON         CLOUDY    42  29  59 E9        29.89F
W YELLOWSTONE  CLOUDY    36  32  87 NE8       29.94R WCI  29
ENNIS          CLOUDY    39  32  75 CALM      29.95F
THREE FORKS      N/A     32  30  92 CALM      29.94R
$$

MTZ009-010-012-014-046-048-049-054-261200-
EAST SLOPES AND CENTRAL MONTANA

CITY           SKY/WX    TMP DP  RH WIND       PRES   REMARKS
CUT BANK       CLEAR     37  33  85 W10       29.92S WCI  30
GREAT FALLS    PTCLDY    37  34  89 SW10      29.95R WCI  30
MALMSTROM AFB  CLEAR     37  37  98 SW7       29.95R WCI  32
HELENA         CLOUDY    43  36  76 W5        29.94S
CHOTEAU          N/A     37  32  81 W5        29.96S
CONRAD           N/A     37  37 100 W3        29.95S
$$

MTZ011-013-016-021-045-047-050-051-261200-
NORTH CENTRAL MONTANA

CITY           SKY/WX    TMP DP  RH WIND       PRES   REMARKS
HAVRE          CLEAR     41  38  89 W10       29.87R
LEWISTOWN      CLEAR     37  34  89 S6        29.93R
N BAR RANCH      N/A     36  34  93 NW7       29.94S WCI  30
CHINOOK          N/A     45  39  81 W8        29.85R
FORT BENTON      N/A     43  37  81 CALM        N/A
$$

MTZ017>020-022>027-061-062-261200-
NORTHEAST MONTANA

CITY           SKY/WX    TMP DP  RH WIND       PRES   REMARKS
GLASGOW        CLEAR     41  36  82 W14       29.79R
JORDAN           N/A     43  36  76 W7        29.84R
SIDNEY         CLOUDY    50  39  66 W15G21    29.75R
WOLF POINT     MOCLDY    46  37  71 W13       29.77R
MALTA          MOCLDY    43  39  87 W14       29.82R
PLENTYWOOD       N/A     48  39  71 W20G26    29.68R
POPLAR           N/A     50  39  66 W13       29.75R
$$

MTZ028>42-056>058-261200-
SOUTHCENTRAL AND SOUTHEAST MONTANA

CITY           SKY/WX    TMP DP  RH WIND       PRES   REMARKS
BAKER          CLEAR     41  35  79 W15       29.83R
BILLINGS       MOCLDY    42  32  67 SW13      29.92R
LIVINGSTON     PTCLDY    33  30  88 CALM      29.94R
MILES CITY     MOCLDY    47  36  65 W3        29.85R
BIG TIMBER     CLEAR     36  30  80 W12       29.96S WCI  27
FORSYTH          N/A     46  36  66 CALM      29.87R
LAUREL           N/A     36  29  76 MISG      29.92F
ROUNDUP          N/A     42  33  70 W7        29.84R
$$

REGIONAL REPORTS...DAKOTAS

CITY           SKY/WX    TMP DP  RH WIND       PRES   REMARKS
WILLISTON      CLOUDY    51  41  68 W12       29.70R
MINOT          CLEAR     50  44  80 SW13      29.62R
DICKINSON      CLOUDY    47  37  68 W23G29    29.73R
BEACH          CLOUDY    46  41  81 W15       29.81R
CROSBY         CLOUDY    48  46  93 W18       29.64R
TIOGA          CLOUDY    48  48 100 W21       29.67S
WATFORD CITY   MOCLDY    50  41  71 W16       29.70S
BISMARCK       MOCLDY    50  42  74 W12       29.72R
GRAND FORKS    PTCLDY    50  46  86 W9        29.59R
FARGO          CLEAR     49  45  86 SW5       29.63R
BUFFALO SD       N/A     42  37  82 W10       29.77R
RAPID CITY     CLEAR     44  33  65 CALM      29.88S
$$

REGIONAL REPORTS...WYOMING/IDAHO/WASHINGTON

CITY           SKY/WX    TMP DP  RH WIND       PRES   REMARKS
GILLETTE       CLEAR     33  32  96 CALM      29.91F
SHERIDAN       CLOUDY    39  34  82 SW6       29.92R
BUFFALO WY     CLOUDY    44  35  70 CALM      29.93S
CODY           CLOUDY    44  34  67 SW5       29.95R
YELLOWSTONE LA   N/A     34  28  79 CALM      29.96R
IDAHO FALLS    CLOUDY    40  34  79 CALM      29.83R
SALMON         CLOUDY    45  39  81 SE6       29.88S
BOISE          CLOUDY    50  43  77 W6        29.83R
SPOKANE        PTCLDY    47  40  76 CALM      29.89S
$$

REGIONAL REPORTS...ALBERTA

CITY           SKY/WX    TMP DP  RH WIND       PRES   REMARKS
EDMONTON       CLEAR     46  41  81 W7        29.77F
CALGARY        PTCLDY    41  32  70 SW5       29.88F
LETHBRIDGE     CLEAR     39  36  87 SW12      29.90S WCI  32
MEDICINE HAT   CLOUDY    46  39  76 W8        29.84R
WATERTON GATE    N/A     36  34  93 S10         N/A  WCI  28
MILK RIVER       N/A     41  36  81 W12         N/A
ONEFOUR          N/A     37  36  93 W13         N/A  WCI  29
$$

REGIONAL REPORTS...SASKATCHEWAN

CITY           SKY/WX    TMP DP  RH WIND       PRES   REMARKS
SWIFT CURRENT  PTCLDY    43  39  87 W10       29.73R
REGINA         CLOUDY    46  45  93 NW22G28   29.60R
SASKATOON      PTCLDY    45  41  87 NW20      29.62R
VAL MARIE        N/A     43  39  87 W13         N/A
ROCKGLEN         N/A     45  39  81 NW16G25     N/A
ASSINIBOIA       N/A     50  41  71 W7          N/A
$$




USA.gov is the U.S. government's official web portal to all federal, state and local government web resources and services.